Flag for Czech Republic Weather past 2 weeks in Plzen, Czech Republic

Now
58 °F

Thunderstorms. Overcast.


Feels Like: 56 °F
Forecast: 40 / 64 °F
Wind: 8 mph from East

Location: Kocelovice


UV Index: 3 (Moderate)

Visibility: 25 mi


Pressure: 29.76 "Hg

Humidity: 49%

Dew point: 38 °F

Location of PlzenLocation

Historic Weather in Plzen

°F

Plzen temperature yesterday

Maximum temperature yesterday: 62 °F (at 5:00 PM)
Minimum temperature yesterday: 31 °F (at 7:00 AM)
Average temperature yesterday: 46 °F

Past Weeks' High & Low Weather Summary

 TemperatureHumidityPressure
High66 °F (Apr 7, 4:00 PM)100% (Apr 19, 4:00 AM)30.44 "Hg (Apr 19, 4:00 AM)
Low28 °F (Apr 17, 6:00 AM)29% (Apr 17, 5:00 PM)29.76 "Hg (Apr 20, 4:00 PM)
Average46 °F70%30.06 "Hg
* Reported Apr 5 4:00 PM — Apr 20 4:00 PM, Plzen, Weather by CustomWeather, © 2014

Note: Actual official high and low records may vary slightly from our data, if they occured in-between our weather recording intervals... More about our weather records

Advertising

Historic Weather Conditions — Data for Previous 24 hours

 ConditionsComfort  
Time TempWeatherWind HumidityBarometerVisibility
4:00 PM
Apr 20
58 °FThunderstorms. Overcast.8 mph49%29.76 "Hg25 mi
3:00 PM58 °FThunderstorms. Overcast.9 mph47%29.77 "Hg22 mi
2:00 PM58 °FThunderstorms. Partly sunny.8 mph48%29.78 "Hg16 mi
1:00 PM56 °FOvercast.8 mph50%29.79 "Hg19 mi
12:00 PM56 °FOvercast.6 mph55%29.80 "Hg16 mi
11:00 AM54 °FPartly sunny.6 mph62%29.81 "Hg16 mi
10:00 AM53 °FScattered clouds.7 mph66%29.82 "Hg14 mi
9:00 AM49 °FPartly sunny.6 mph74%29.83 "Hg12 mi
8:00 AM46 °FPassing clouds.6 mph82%29.83 "Hg11 mi
7:00 AM42 °FQuite cool.3 mph92%29.84 "Hg9 mi
6:00 AM43 °FQuite cool.5 mph89%29.83 "Hg12 mi
5:00 AM45 °FCool.6 mph84%29.82 "Hg12 mi
4:00 AM48 °FCool.5 mph77%29.82 "Hg12 mi
3:00 AM49 °FCool.5 mph75%29.82 "Hg12 mi
2:00 AM51 °FCool.7 mph70%29.81 "Hg12 mi
1:00 AM51 °FCool.7 mph68%29.81 "Hg12 mi
12:00 AM54 °FCool.9 mph61%29.81 "Hg12 mi
11:00 PM
Apr 19
55 °FCool.8 mph58%29.81 "Hg12 mi
10:00 PM56 °FOvercast.8 mph57%29.82 "Hg12 mi
9:00 PM56 °FOvercast.7 mph61%29.83 "Hg12 mi
8:00 PM59 °FOvercast.8 mph52%29.81 "Hg12 mi
7:00 PM61 °FOvercast.12 mph49%29.79 "Hg12 mi
6:00 PM60 °FOvercast.9 mph51%29.79 "Hg12 mi
5:00 PM62 °FPartly sunny.8 mph49%29.80 "Hg14 mi
Weather by CustomWeather, © 2014

See weather overview